Date,TemperatureHighF,TemperatureAvgF,TemperatureLowF,DewpointHighF,DewpointAvgF,DewpointLowF,HumidityHigh,HumidityAvg,HumidityLow,PressureMaxIn,PressureMinIn,WindSpeedMaxMPH,WindSpeedAvgMPH,GustSpeedMaxMPH,PrecipitationSumIn
2013-1-1,50.0,44.0,39.7,46.9,40.2,21.7,95,87,48,29.64,29.49,17,2,17,0.78
2013-1-2,48.6,40.1,33.6,41.7,35.5,30.6,96,84,52,29.63,29.46,9,1,9,0.04
2013-1-3,50.4,33.5,20.7,34.7,23.4,6.6,91,70,23,29.78,29.58,14,1,14,0.00
2013-1-4,49.3,27.1,15.4,26.8,8.6,-4.2,81,52,16,29.81,29.73,17,2,20,0.00
2013-1-5,53.1,32.6,16.2,30.4,11.6,-0.2,80,51,14,29.83,29.72,15,2,17,0.04
2013-1-6,49.3,37.8,29.8,38.5,29.8,21.2,94,74,49,29.73,29.59,17,4,19,0.06
2013-1-7,60.3,32.6,18.7,36.7,16.8,4.8,87,59,14,29.85,29.69,8,1,8,0.00
2013-1-8,58.8,34.8,20.7,40.1,26.9,16.0,86,74,44,29.89,29.80,15,2,15,0.00
2013-1-9,59.2,47.2,35.4,52.0,42.7,30.9,93,85,74,29.99,29.88,5,1,5,0.01
2013-1-10,64.8,50.0,39.9,51.1,44.3,38.7,95,82,51,29.99,29.83,11,2,11,0.06
2013-1-11,58.6,55.5,50.9,57.2,53.2,48.9,96,92,87,29.83,29.70,12,3,12,0.74
2013-1-12,70.5,60.4,52.7,57.9,53.5,48.0,95,79,53,29.78,29.67,16,3,18,0.25
2013-1-13,61.5,58.5,56.5,55.4,50.6,47.7,94,75,68,29.71,29.63,18,4,18,0.33
2013-1-14,59.5,56.7,52.2,56.8,54.5,49.8,95,92,86,29.72,29.62,30,3,30,1.68
2013-1-15,58.8,55.7,54.3,56.1,53.7,51.4,95,93,89,29.69,29.55,19,3,19,3.07
2013-1-16,63.9,54.4,48.7,55.4,50.3,43.2,94,87,56,29.59,29.50,15,2,15,1.00
2013-1-17,51.4,44.4,30.4,50.0,41.6,19.9,95,90,59,29.70,29.26,14,2,16,1.77
2013-1-18,55.4,32.4,21.2,26.2,17.1,2.7,86,60,14,29.94,29.70,10,1,16,0.02
2013-1-19,59.5,34.6,18.5,36.9,17.2,4.3,88,58,14,29.92,29.70,12,2,12,0.01
2013-1-20,59.0,37.3,25.5,28.2,21.7,15.3,82,56,24,29.70,29.61,16,3,20,0.00
2013-1-21,51.1,31.8,19.6,29.3,13.4,-4.5,86,53,19,29.64,29.54,23,4,23,0.00
2013-1-22,42.4,25.2,16.2,3.2,-4.3,-10.1,42,28,15,29.68,29.53,25,5,25,0.00
2013-1-23,47.1,31.8,22.3,25.3,12.4,-3.8,63,45,29,29.74,29.59,27,5,27,0.00
2013-1-24,47.8,34.9,21.4,28.9,9.1,-10.7,70,39,15,29.80,29.56,31,6,31,0.00
2013-1-25,42.1,31.1,21.9,39.9,21.2,-4.0,93,70,27,29.81,29.58,24,3,26,0.48
2013-1-26,61.2,35.7,24.1,36.0,20.0,0.9,92,64,12,29.81,29.60,15,2,18,0.01
2013-1-27,59.2,35.7,19.9,35.4,22.6,14.4,85,62,23,29.90,29.79,11,1,11,0.00
2013-1-28,60.6,46.7,37.6,45.9,38.2,20.7,92,73,45,29.88,29.79,15,3,16,0.00
2013-1-29,63.7,50.5,34.5,54.5,45.4,31.5,95,83,59,29.82,29.57,18,3,19,0.21
2013-1-30,59.0,51.4,33.8,55.4,47.9,28.9,93,88,75,29.58,29.11,31,8,31,4.04
2013-1-31,41.7,30.3,23.0,28.9,14.8,5.9,83,54,25,29.56,29.21,26,4,26,0.00
2013-2-1,36.0,25.6,12.4,23.7,0.2,-14.3,76,37,15,29.76,29.49,33,6,33,0.00
2013-2-2,42.6,23.6,11.7,27.1,15.5,-4.0,89,73,18,29.76,29.54,23,3,23,0.00
2013-2-3,45.5,31.4,25.9,28.4,21.1,12.0,88,67,38,29.55,29.45,22,6,24,0.11
2013-2-4,53.1,32.6,16.7,25.0,14.5,7.2,77,51,19,29.61,29.50,15,2,15,0.01
2013-2-5,55.6,37.3,27.5,36.5,25.1,13.6,88,63,39,29.57,29.46,17,3,21,0.00
2013-2-6,63.0,37.6,24.8,31.6,20.5,5.5,87,60,14,29.73,29.56,16,2,17,0.00
2013-2-7,45.3,36.7,26.8,39.0,32.3,20.8,93,84,73,29.72,29.48,6,1,73,0.27
2013-2-8,52.7,39.0,26.2,41.9,33.6,20.5,95,82,44,29.65,29.44,17,2,17,0.06
2013-2-9,68.5,36.8,18.5,67.8,18.6,5.0,86,56,10,29.80,29.61,9,2,9,0.01
2013-2-10,51.4,41.4,27.3,47.3,27.4,10.4,99,63,20,29.83,29.65,15,4,17,1.12
2013-2-11,52.0,45.9,33.6,51.1,41.6,29.3,99,86,55,29.66,29.57,20,4,20,0.44
2013-2-12,58.3,38.8,27.5,35.2,26.3,5.5,94,70,14,29.63,29.42,6,1,9,0.24
2013-2-13,45.0,38.3,27.5,43.0,34.0,23.0,99,85,70,29.44,29.25,25,4,25,0.09
2013-2-14,56.5,37.2,24.8,25.7,21.6,12.9,85,59,21,29.58,29.43,16,3,16,0.00
2013-2-15,55.2,34.2,20.1,37.4,23.8,15.4,89,70,25,29.62,29.49,15,2,15,0.04
2013-2-16,38.3,26.2,16.5,28.4,12.9,-2.6,87,59,21,29.50,29.38,21,4,22,0.00
2013-2-17,39.4,22.4,14.7,5.5,-1.9,-11.6,63,36,17,29.70,29.48,30,7,36,0.00
2013-2-18,58.8,32.1,13.3,21.7,12.8,5.0,77,50,18,29.78,29.62,21,3,21,0.00
2013-2-19,51.1,36.9,29.1,36.3,20.9,3.0,95,57,24,29.64,29.46,30,6,30,0.40
2013-2-20,48.7,31.8,19.9,8.2,-0.3,-12.6,56,27,14,29.62,29.57,23,4,23,0.00
2013-2-21,67.6,39.3,19.8,67.6,17.6,1.8,93,51,10,29.70,29.55,17,2,17,0.50
2013-2-22,48.4,39.9,33.4,43.3,37.6,31.8,99,92,78,29.69,29.55,8,2,10,0.53
2013-2-23,58.5,46.3,37.6,52.3,44.0,36.0,99,92,74,29.58,29.39,9,1,9,0.21
2013-2-24,66.4,42.1,27.5,66.4,21.6,5.9,96,59,10,29.56,29.43,21,3,22,0.01
2013-2-26,48.0,41.0,33.3,43.3,34.9,26.2,89,79,70,29.23,29.11,25,7,27,1.29
2013-2-27,54.9,37.3,29.8,31.1,26.8,22.8,84,67,34,29.35,29.22,23,8,24,0.04
2013-2-28,34.2,28.7,25.3,23.2,18.3,14.4,73,65,56,29.41,29.27,33,6,33,0.00
2013-3-1,44.4,30.3,25.5,24.8,19.2,16.7,73,64,42,29.42,29.36,17,3,17,0.00
2013-3-2,39.0,28.1,20.1,21.7,16.7,6.8,73,63,40,29.44,29.36,18,3,18,0.01
2013-3-3,43.3,23.9,16.0,10.9,5.4,-1.1,64,47,21,29.49,29.40,16,4,17,0.00
2013-3-4,57.9,33.3,16.0,25.2,11.7,-11.2,77,45,17,29.60,29.48,18,3,18,0.00
2013-3-5,50.0,40.3,27.0,46.9,35.7,19.8,97,84,59,29.58,29.23,36,4,36,0.72
2013-3-6,30.2,23.7,18.9,21.2,17.0,13.5,83,76,62,29.61,29.26,0,0,0,0.01
2013-3-7,67.3,32.9,14.4,29.1,17.7,8.4,83,61,15,29.73,29.58,16,1,16,0.05
2013-3-8,68.9,37.5,19.4,68.9,20.3,5.7,90,54,10,29.79,29.71,9,1,12,0.00
2013-3-9,75.2,43.2,21.7,74.7,26.8,8.2,87,51,10,29.80,29.72,15,2,15,0.00
2013-3-10,70.2,47.9,30.0,37.2,26.2,9.7,85,51,10,29.76,29.67,9,3,13,0.00
2013-3-11,51.1,47.8,45.9,49.6,45.9,37.4,99,93,67,29.68,29.38,23,5,23,1.04
2013-3-12,62.8,45.5,29.3,49.8,28.5,4.5,99,63,13,29.58,29.36,17,4,20,0.06
2013-3-13,46.9,34.6,23.2,26.1,15.8,5.0,84,49,21,29.66,29.55,23,6,26,0.00
2013-3-14,53.2,32.0,15.3,14.2,5.4,-7.4,75,39,14,29.73,29.64,24,4,24,0.00
2013-3-15,68.7,46.7,26.4,39.9,28.5,8.2,88,53,22,29.70,29.54,31,6,31,0.00
2013-3-16,75.2,58.4,50.2,43.5,39.7,37.0,61,51,30,29.55,29.44,29,8,31,0.00
2013-3-17,72.9,56.2,46.0,45.7,41.1,37.0,84,59,29,29.57,29.49,16,4,20,0.00
2013-3-18,53.1,47.9,41.4,48.9,45.3,41.2,99,91,75,29.56,29.40,21,3,21,0.72
2013-3-19,61.9,44.2,27.7,44.2,23.2,4.3,99,56,12,29.62,29.43,20,4,23,0.01
2013-3-20,57.9,36.4,22.5,26.8,13.0,-5.1,85,48,13,29.61,29.39,22,4,22,0.00
2013-3-21,45.5,27.9,16.7,21.9,1.2,-15.2,77,35,15,29.42,29.31,22,5,22,0.00
2013-3-22,45.3,31.1,16.2,28.0,16.3,-1.3,74,56,21,29.53,29.42,12,2,12,0.00
2013-3-23,63.0,44.1,34.9,46.9,39.0,27.1,99,83,55,29.53,29.36,8,1,8,0.17
2013-3-24,55.4,44.8,34.0,48.0,41.8,27.3,99,89,69,29.44,29.06,23,4,23,1.09
2013-3-25,33.6,26.0,21.7,27.5,19.2,15.4,83,75,62,29.43,29.13,21,0,22,0.00
2013-3-26,34.9,26.3,21.7,19.2,16.1,13.6,81,66,48,29.67,29.40,13,2,16,0.01
2013-3-27,53.6,32.3,17.4,17.8,11.4,2.5,77,47,15,29.73,29.64,19,4,19,0.00
2013-3-28,57.6,35.3,20.3,18.1,12.5,3.7,82,47,13,29.80,29.70,21,4,23,0.00
2013-3-29,50.9,32.5,19.0,34.0,23.6,12.7,87,72,26,29.83,29.74,11,1,11,0.02
2013-3-30,67.3,47.6,35.2,45.5,34.3,21.2,97,67,20,29.74,29.59,16,2,16,0.27
2013-3-31,55.9,50.3,45.7,49.5,47.3,44.8,99,90,71,29.60,29.44,25,6,25,1.09
2013-4-1,69.6,50.5,37.9,49.1,37.7,28.4,99,67,24,29.58,29.44,22,4,22,0.04
2013-4-2,66.4,46.6,32.9,30.4,15.9,-0.2,68,35,10,29.67,29.55,18,5,21,0.00
2013-4-3,67.3,47.3,31.5,28.9,22.0,12.9,74,41,13,29.73,29.62,11,2,11,0.00
2013-4-4,44.1,37.1,32.5,38.1,32.4,21.4,99,85,41,29.72,29.45,11,2,11,0.79
2013-4-5,70.3,46.3,33.3,70.0,33.7,7.2,99,69,10,29.65,29.44,14,2,145,0.01
2013-4-6,76.5,47.2,25.7,75.6,30.1,10.4,99,57,10,29.73,29.64,18,2,18,0.00
2013-4-7,41.0,39.5,38.3,34.0,33.7,33.1,82,79,75,29.73,29.72,6,2,6,0.00
2013-4-8,80.4,57.7,41.9,50.2,43.7,39.6,93,65,26,29.73,29.67,17,3,21,0.00
2013-4-9,86.4,60.7,41.4,54.3,46.8,41.2,99,67,25,29.81,29.70,17,3,17,0.00
2013-4-10,90.9,63.4,41.5,58.1,48.1,41.4,99,65,22,29.76,29.59,17,3,17,0.00
2013-4-11,81.9,61.2,55.8,60.6,52.6,45.1,99,76,29,29.60,29.34,17,3,19,2.11
2013-4-12,71.4,57.0,39.2,56.7,44.8,30.7,99,70,27,29.51,29.28,27,6,27,0.74
2013-4-13,75.4,48.3,35.8,75.2,32.4,9.3,92,57,10,29.65,29.50,13,3,16,0.00
2013-4-14,67.5,45.6,30.0,43.7,33.1,27.0,99,69,22,29.66,29.59,11,2,11,0.01
2013-4-19,52.9,45.2,35.8,50.9,38.6,27.0,94,78,67,29.54,29.41,22,5,22,1.39
2013-4-20,68.0,44.5,28.9,68.0,20.6,6.6,85,48,10,29.80,29.54,16,3,17,0.00
2013-4-21,71.6,45.5,26.4,70.3,25.8,10.0,99,57,10,29.88,29.79,13,2,120,0.00
2013-4-22,77.7,50.3,29.3,41.9,32.3,19.9,99,59,14,29.87,29.71,14,2,14,0.00
2013-4-23,80.2,53.4,28.4,43.2,34.3,27.1,99,59,18,29.78,29.66,14,2,14,0.00
2013-4-24,70.0,55.1,43.3,54.7,48.4,40.6,99,80,48,29.71,29.64,22,4,22,0.18
2013-4-25,75.9,54.4,32.2,75.0,38.3,4.1,99,38,10,29.88,29.66,19,4,21,0.00
2013-4-26,79.5,50.1,25.2,79.5,30.9,10.4,97,49,10,29.92,29.83,16,2,18,0.00
2013-4-27,57.0,47.9,44.6,51.4,45.4,39.2,99,92,60,29.92,29.75,9,1,10,0.66
2013-4-28,52.5,49.4,47.1,52.0,49.2,46.9,99,99,98,29.77,29.58,11,2,11,1.71
2013-4-29,80.4,58.9,44.8,57.6,45.8,30.6,99,70,21,29.62,29.53,15,2,15,0.05
2013-4-30,89.1,56.9,35.8,55.6,45.3,35.1,99,72,23,29.74,29.59,10,2,12,0.00
2013-5-1,77.2,61.0,48.0,52.5,47.7,41.7,99,66,30,29.79,29.72,12,2,13,0.00
2013-5-2,68.9,56.5,52.2,54.3,49.6,45.3,96,79,51,29.81,29.73,11,3,12,0.01
2013-5-3,66.4,53.3,48.4,52.9,49.2,45.0,99,88,51,29.76,29.60,18,4,18,0.21
2013-5-4,50.4,47.5,44.1,48.0,45.3,31.6,99,92,68,29.60,29.45,21,5,21,1.65
2013-5-5,55.9,49.6,45.5,52.3,48.0,44.8,99,94,80,29.49,29.36,21,3,21,1.50
2013-5-6,63.7,46.2,36.1,49.1,40.3,35.4,99,82,41,29.49,29.34,13,2,13,0.28
2013-5-7,73.0,51.8,36.0,48.4,38.7,29.7,99,68,26,29.56,29.44,17,2,17,0.00
2013-5-8,69.4,53.8,41.9,53.4,47.9,40.6,99,83,49,29.68,29.52,16,2,36,0.05
2013-5-9,82.0,58.8,44.1,61.0,48.2,43.2,99,74,29,29.73,29.64,17,2,17,0.05
2013-5-10,79.9,58.3,41.9,58.1,49.1,41.7,99,75,38,29.74,29.59,17,2,21,0.08
2013-5-11,70.5,58.8,52.5,60.4,54.7,51.6,99,88,57,29.62,29.51,15,3,16,0.32
2013-5-12,71.8,51.6,33.6,71.8,33.1,6.6,99,58,10,29.66,29.52,22,4,22,0.01
2013-5-13,68.9,45.8,28.8,68.9,25.2,6.4,99,54,10,29.75,29.64,18,4,27,0.00
2013-5-14,79.3,43.2,27.7,41.0,31.1,25.7,99,73,20,29.79,29.75,17,2,17,0.00
2013-5-16,54.0,53.1,51.6,50.5,49.9,48.9,91,89,87,29.69,29.68,1,0,2,0.00
2013-5-17,85.5,61.8,47.1,58.1,49.8,37.4,99,71,21,29.74,29.68,17,2,17,0.00
2013-5-18,69.8,60.3,54.0,60.8,57.7,50.5,99,92,70,29.72,29.67,10,2,13,0.30
2013-5-19,83.3,62.2,51.6,68.4,58.8,51.3,99,90,46,29.72,29.64,9,1,9,0.19
2013-5-20,95.2,65.6,46.8,64.8,55.0,46.6,99,77,28,29.74,29.68,15,2,16,0.11
2013-5-21,95.5,67.2,56.1,68.5,59.4,52.9,99,81,31,29.71,29.60,15,2,18,0.50
2013-5-22,86.9,65.5,54.1,67.3,57.9,53.2,99,81,41,29.68,29.54,15,2,15,0.08
2013-5-23,83.3,65.4,55.0,62.1,53.5,47.8,99,70,31,29.61,29.55,17,4,19,0.02
2013-5-24,78.1,60.1,38.8,78.1,39.4,8.2,84,49,10,29.82,29.59,13,3,14,0.00
2013-5-25,87.1,54.4,29.3,86.7,41.8,10.0,99,54,10,29.87,29.80,13,2,17,0.00
2013-5-26,82.8,55.1,39.4,55.8,41.8,34.7,99,68,19,29.88,29.78,14,2,14,0.02
2013-5-27,87.4,60.9,39.9,53.8,47.7,39.7,99,70,27,29.85,29.77,13,2,13,0.00
2013-5-28,88.9,66.8,51.8,58.1,53.5,45.3,98,68,25,29.84,29.76,18,3,18,0.00
2013-5-29,93.6,68.8,53.8,62.8,55.6,47.7,99,70,25,29.85,29.78,11,2,11,0.00
2013-5-30,90.1,69.7,52.3,61.9,55.4,51.8,99,67,29,29.88,29.79,8,2,8,0.00
2013-5-31,89.1,67.8,55.9,59.0,56.4,49.5,99,71,31,29.86,29.75,16,3,16,0.00
2013-6-1,88.7,69.8,58.1,62.8,58.7,53.4,99,72,34,29.78,29.68,19,4,21,0.09
2013-6-2,81.1,65.5,60.8,68.4,62.7,60.1,99,91,58,29.69,29.56,15,2,15,0.63
2013-6-3,85.8,66.5,54.1,64.4,58.0,52.5,99,78,38,29.65,29.55,9,2,11,0.01
2013-6-4,88.9,68.4,50.4,61.3,54.7,44.6,99,69,28,29.71,29.63,11,2,12,0.00
2013-6-5,89.4,67.8,55.2,64.2,59.7,54.3,99,80,39,29.71,29.59,10,2,11,1.44
2013-6-6,79.0,66.6,57.7,65.8,61.2,57.4,99,85,55,29.62,29.45,10,2,10,0.01
2013-6-7,90.0,65.9,59.0,66.2,59.9,53.8,99,85,32,29.52,29.38,13,2,13,0.38
2013-6-8,87.8,65.8,54.9,63.3,56.9,52.9,99,78,36,29.76,29.51,9,2,9,0.01
2013-6-9,88.7,65.5,53.2,69.8,59.9,52.7,99,85,40,29.78,29.68,14,2,15,1.11
2013-6-13,73.0,64.3,60.4,70.7,63.4,60.1,99,97,87,29.54,29.45,10,2,10,0.89
2013-6-14,86.4,63.1,49.8,67.3,53.0,45.3,99,78,26,29.63,29.53,8,2,9,0.01
2013-6-15,93.3,73.3,49.4,58.3,51.5,-99.9,99,53,28,30.07,27.31,6,-19,9,0.00
2013-6-16,89.9,68.4,48.7,62.8,55.5,48.4,99,71,30,30.14,29.79,8,1,11,0.01
2013-6-17,92.4,69.1,61.5,67.9,63.1,60.9,99,83,42,29.96,29.68,5,1,8,0.43
2013-6-18,76.1,65.5,60.4,67.2,62.7,60.1,99,91,67,29.85,29.67,11,2,22,0.30
2013-6-19,88.8,67.7,56.3,65.6,58.5,49.5,99,78,28,30.06,29.72,4,0,8,0.01
2013-6-20,93.7,67.3,52.5,64.8,58.7,51.9,99,78,33,30.14,29.86,4,1,7,0.00
2013-6-21,88.3,66.6,55.2,63.0,59.0,54.3,99,80,37,30.17,29.95,4,0,8,0.00
2013-6-22,94.8,67.7,51.9,65.0,55.3,43.7,99,73,20,30.18,29.82,4,1,8,0.00
2013-6-23,89.6,67.0,50.3,66.3,59.5,50.0,99,80,39,30.15,29.89,4,1,8,0.05
2013-6-24,96.8,71.3,60.2,68.8,62.0,55.2,99,78,30,30.12,29.83,5,1,11,0.05
2013-6-25,87.2,68.0,55.4,66.0,61.6,55.1,99,83,41,30.10,29.88,6,1,10,0.02
2013-6-26,92.8,69.1,57.7,69.0,63.3,57.4,99,84,40,30.01,29.73,7,1,11,0.26
2013-6-27,85.1,72.4,63.5,68.1,65.3,62.0,99,80,53,29.84,29.61,8,2,14,0.40
2013-6-28,93.0,71.9,59.5,68.0,62.5,59.2,99,78,35,29.77,29.41,9,2,15,0.06
2013-6-29,91.9,69.9,55.0,65.9,57.0,48.0,99,71,28,29.69,29.39,8,1,13,0.00
2013-6-30,88.8,66.2,48.2,63.2,55.5,47.9,99,74,33,29.76,29.47,8,1,11,0.00
2013-7-1,89.9,65.5,58.1,65.5,60.1,54.2,99,86,34,29.86,29.57,4,0,9,0.13
2013-7-2,87.8,69.8,58.2,65.0,60.5,54.8,99,77,34,30.00,29.75,8,1,17,0.35
2013-7-3,69.4,61.9,59.3,67.1,61.2,59.0,99,98,87,30.11,29.99,5,0,9,1.81
2013-7-4,71.4,63.4,59.5,67.3,62.3,59.2,99,96,86,30.10,29.97,4,1,10,1.03
2013-7-5,86.7,66.5,62.0,67.4,62.8,60.2,99,89,43,30.09,29.92,4,2,15,0.26
2013-7-6,80.7,67.0,62.4,67.2,63.7,61.0,99,90,53,30.08,29.92,5,1,13,0.77
2013-7-7,82.2,69.1,63.6,66.3,64.2,61.9,99,86,54,30.07,29.89,4,1,10,0.06
2013-7-8,92.3,70.9,61.8,69.4,64.2,61.3,99,83,40,30.09,29.85,4,1,6,1.38
2013-7-9,97.3,71.8,63.3,70.6,65.6,62.4,99,85,35,30.09,29.82,4,1,6,0.28
2013-7-10,97.7,72.2,62.6,72.1,65.0,61.7,99,83,36,30.04,29.69,7,1,8,0.21
2013-7-11,83.3,69.6,62.4,71.1,65.4,61.7,99,88,57,29.88,29.67,6,0,10,0.08
2013-7-12,92.8,69.2,61.1,71.3,63.6,60.5,99,86,39,29.88,29.61,4,1,6,0.24
2013-7-13,80.0,66.5,59.9,65.4,61.6,59.6,99,86,55,29.98,29.83,4,1,8,0.01
2013-7-14,79.7,66.6,63.6,69.6,64.5,62.4,99,93,67,30.14,29.96,6,1,11,0.79
2013-7-15,85.1,68.9,61.5,67.3,63.7,60.9,99,85,51,30.20,30.02,4,1,7,0.04
2013-7-16,98.2,73.7,60.9,69.6,64.9,60.2,99,79,32,30.24,29.96,4,0,8,0.01
2013-7-17,98.7,70.9,59.7,70.0,63.8,59.4,99,83,30,30.25,29.93,3,0,7,0.14
2013-7-18,98.0,71.0,58.1,71.1,63.6,57.8,99,82,35,30.16,29.82,4,1,7,0.01
2013-7-19,94.4,69.0,59.1,69.9,63.6,58.8,99,87,36,30.08,29.81,4,0,7,0.15
2013-7-20,93.5,71.0,61.7,70.0,64.4,61.1,99,83,39,29.98,29.73,5,0,14,0.01
2013-7-21,93.9,72.6,63.6,67.8,64.9,61.8,99,81,39,29.91,29.67,6,1,10,0.05
2013-7-22,83.4,69.2,61.8,67.0,63.7,61.3,99,84,51,29.90,29.65,8,2,17,0.12
2013-7-23,89.9,70.8,62.2,66.3,62.6,60.1,98,79,39,29.83,29.63,7,2,11,0.00
2013-7-24,95.5,68.9,59.7,67.2,63.2,59.4,99,85,34,29.81,29.55,3,0,6,0.00
2013-7-25,93.0,68.6,55.9,66.7,61.0,55.6,99,82,32,29.95,29.64,4,1,5,0.06
2013-7-26,92.6,66.4,54.8,67.1,60.7,54.0,99,85,38,30.03,29.78,6,1,11,0.32
2013-7-27,80.4,67.8,61.3,66.7,61.9,55.6,99,84,43,29.93,29.69,5,1,9,0.14
2013-7-28,88.8,69.1,56.8,66.7,59.6,52.2,99,77,35,30.00,29.71,8,1,13,0.01
2013-7-29,93.7,66.8,51.9,62.5,55.4,47.3,99,75,22,30.15,29.80,5,1,11,0.00
2013-7-30,93.3,67.6,48.5,63.4,56.3,48.2,99,75,26,30.21,29.87,4,0,6,0.00
2013-7-31,75.3,66.6,62.2,67.1,63.7,61.6,99,91,68,30.07,29.81,4,0,7,0.13
2013-8-1,91.7,70.0,58.1,67.7,62.7,57.7,99,82,38,29.92,29.65,7,1,9,0.01
2013-8-2,91.7,70.3,54.3,66.1,60.5,53.4,99,76,34,29.99,29.74,6,1,8,0.00
2013-8-3,86.9,67.2,56.1,65.0,60.4,55.8,99,82,41,30.00,29.79,6,1,8,0.00
2013-8-4,92.3,69.2,55.9,66.6,59.7,54.6,99,77,37,30.01,29.72,6,1,11,0.00
2013-8-5,93.2,66.1,51.0,64.7,56.0,50.8,99,77,28,30.04,29.73,6,1,11,0.00
2013-8-6,60.4,59.9,59.3,60.1,59.6,58.7,99,99,98,29.93,29.89,1,0,2,0.00
2013-8-7,79.8,68.9,66.0,68.2,66.5,64.0,99,93,62,29.93,29.82,4,1,7,0.26
2013-8-8,94.6,71.3,64.9,70.8,66.3,62.3,99,87,40,29.95,29.75,7,1,10,0.08
2013-8-9,91.9,71.6,62.9,71.0,65.6,62.0,99,84,42,30.01,29.76,5,1,8,0.01
2013-8-10,91.7,71.5,64.9,74.3,67.4,63.8,99,89,47,30.04,29.82,4,1,10,0.41
2013-8-11,91.0,71.0,62.6,69.3,65.0,61.7,99,85,43,30.07,29.88,4,1,11,0.00
2013-8-16,72.5,63.0,56.3,58.2,55.6,52.4,90,78,59,30.04,29.86,3,1,6,0.00
2013-8-17,70.3,61.0,53.4,61.0,57.1,51.2,99,87,66,30.05,29.96,3,0,6,0.13
2013-8-18,79.5,66.7,58.8,67.9,61.1,58.5,99,84,54,30.09,29.92,5,1,10,0.26
2013-8-19,74.3,66.4,60.0,68.6,63.5,59.7,99,91,71,30.09,29.90,4,0,5,0.40
2013-8-20,84.9,66.4,58.8,70.4,62.8,58.5,99,89,54,30.11,29.90,3,0,5,0.01
2013-8-21,77.9,65.3,61.7,68.2,63.1,61.1,99,93,60,30.12,29.96,4,0,8,0.17
2013-8-22,91.7,68.1,60.4,71.9,63.3,60.1,99,87,41,30.10,29.84,2,0,5,0.13
2013-8-23,91.2,72.5,58.1,69.4,64.6,57.8,99,79,39,30.03,29.73,3,0,4,0.01
2013-8-24,92.6,66.5,53.2,64.7,58.8,52.6,99,81,32,30.21,29.89,3,1,7,0.00
2013-8-25,86.7,64.9,52.8,59.3,56.0,52.3,98,78,35,30.26,30.00,2,0,5,0.00
2013-8-26,89.9,65.3,51.0,60.9,55.6,50.8,99,77,31,30.28,29.91,5,1,7,0.00
2013-8-27,89.6,70.6,53.6,64.5,61.1,52.7,99,77,35,30.14,29.79,3,0,7,0.00
2013-8-28,95.7,67.3,56.4,67.8,60.9,56.2,99,85,35,30.03,29.71,4,0,7,0.00
2013-8-29,89.2,71.2,60.8,68.4,64.9,60.2,99,83,44,29.95,29.71,5,1,8,0.00
2013-8-30,93.9,70.1,58.1,67.5,63.9,57.8,99,84,37,29.97,29.70,3,0,6,0.00
2013-8-31,91.7,67.0,60.2,69.4,63.0,59.9,99,89,40,29.90,29.64,4,0,9,0.00
2013-9-1,87.9,72.6,60.9,68.3,64.2,60.4,98,79,47,29.85,29.61,8,2,11,0.48
2013-9-2,79.8,69.3,60.8,67.9,64.0,60.2,99,85,61,29.84,29.66,5,1,9,0.00
2013-9-3,92.8,66.0,57.3,63.7,60.9,56.9,99,87,34,29.96,29.62,8,1,12,0.02
2013-9-4,66.2,62.4,60.9,63.2,61.4,60.4,98,97,90,30.05,29.95,1,0,2,0.00
2013-9-5,95.5,68.4,55.4,60.7,57.3,50.7,99,75,27,30.12,29.81,2,0,3,0.00
2013-9-6,75.2,64.8,54.5,62.6,59.8,53.6,99,85,62,30.11,29.90,4,0,7,0.00
2013-9-7,71.9,64.2,58.8,63.8,61.0,58.5,99,90,72,29.98,29.86,1,0,3,0.00
2013-9-8,72.3,71.4,70.7,64.6,64.0,63.8,79,78,76,29.82,29.81,0,0,0,0.00
2013-9-9,75.9,68.1,61.8,65.4,63.4,61.3,98,86,67,30.03,29.91,2,0,2,0.00
2013-9-10,62.4,61.6,61.1,61.5,60.8,60.5,98,97,97,30.16,30.13,0,0,1,0.00
2013-9-11,72.6,66.4,62.4,65.8,64.1,61.7,98,92,75,30.06,29.98,2,0,4,0.00
2013-9-14,67.1,60.8,53.0,56.3,53.9,52.0,97,79,60,30.01,29.85,2,0,4,0.11
2013-9-15,78.8,66.5,55.9,58.4,56.0,51.7,98,72,39,30.08,29.90,6,1,8,0.00
2013-9-16,70.3,60.5,54.3,56.6,55.1,53.4,97,84,60,30.10,29.93,1,0,2,0.00
2013-9-17,70.8,66.5,59.0,58.5,57.1,54.8,87,72,58,30.09,30.00,3,1,5,0.00
2013-9-20,73.7,70.7,63.5,61.5,60.6,60.0,89,71,65,29.83,29.76,4,3,6,0.00
2013-10-5,90.5,69.5,52.8,66.2,58.6,52.3,99,73,36,30.04,29.78,5,1,8,0.00
2013-10-6,81.6,61.2,49.4,61.4,55.5,49.1,99,84,42,30.03,29.70,8,1,15,0.24
2013-10-7,79.7,60.4,44.9,62.9,54.6,44.1,99,84,34,29.99,29.62,7,1,11,0.67
2013-10-8,82.7,54.3,42.2,58.4,48.6,41.9,99,85,37,30.11,29.77,4,0,7,0.00
2013-10-9,83.1,54.2,42.0,61.3,48.7,41.8,99,85,36,30.16,29.81,7,1,9,0.00
2013-10-10,48.3,47.1,44.9,48.1,46.7,44.1,99,99,97,30.09,30.05,1,0,2,0.00
2013-10-25,42.8,29.3,23.9,19.4,18.1,12.7,82,65,29,30.38,30.16,2,0,4,0.00
2013-10-26,61.7,35.4,17.7,35.6,20.4,10.6,97,62,15,30.38,29.93,8,1,15,0.00
2013-10-27,60.2,50.6,41.5,48.4,43.3,35.7,92,77,56,30.04,29.92,8,2,14,0.00
2013-10-28,64.7,52.3,47.3,51.0,47.6,43.7,99,85,52,30.20,30.01,8,1,13,0.06
2013-10-29,68.0,50.2,39.0,52.3,44.2,38.7,99,83,43,30.33,30.04,8,1,11,0.00
2013-10-30,76.6,57.1,45.3,53.1,50.0,44.5,99,80,41,30.24,29.93,8,1,15,0.00
2013-10-31,63.8,57.3,50.0,56.9,52.1,47.3,99,84,65,30.12,29.69,11,2,22,0.06
2013-11-1,75.5,58.1,39.7,58.8,46.2,28.3,99,71,19,29.79,29.44,12,3,23,1.03
2013-11-2,64.9,42.5,31.4,45.4,35.0,29.4,99,78,29,30.00,29.62,15,2,30,0.00
2013-11-3,67.8,42.5,28.9,38.4,30.1,18.6,99,69,16,30.34,29.90,5,1,10,0.00
2013-11-4,64.5,39.7,27.6,40.9,29.9,26.6,99,74,27,30.46,30.15,6,1,12,0.00
2013-11-5,74.1,44.1,29.6,42.5,33.3,28.3,99,72,26,30.47,30.07,8,1,11,0.00
2013-11-6,71.0,54.5,42.6,53.4,49.6,31.0,99,85,45,30.31,29.97,7,1,15,0.11
2013-11-7,64.0,48.7,27.6,54.3,40.0,8.5,98,76,17,30.19,29.83,9,2,15,0.28
2013-11-8,30.0,27.6,24.6,26.0,23.7,19.5,90,85,75,30.25,30.19,5,0,10,0.00
2013-11-12,33.8,23.6,19.5,18.0,11.6,8.7,63,59,52,30.43,30.17,7,2,12,0.00
2013-11-13,55.5,27.3,11.6,14.3,6.2,-6.0,80,48,13,30.57,30.19,5,1,10,0.00
2013-11-14,18.1,15.7,13.8,11.6,10.2,8.9,82,78,72,30.54,30.50,0,0,1,0.00
2013-11-15,49.2,47.6,44.0,49.0,47.2,43.5,99,99,97,30.15,30.03,3,1,9,0.69
2013-11-16,62.6,52.5,47.4,52.6,49.9,47.2,99,92,65,30.09,29.95,7,1,11,0.01
2013-11-17,61.1,56.1,52.7,60.3,54.4,51.0,99,94,84,30.05,29.75,13,2,21,0.38
2013-11-18,64.4,51.2,33.6,60.2,40.0,12.0,99,72,14,30.02,29.69,14,2,30,0.12
2013-11-19,63.5,36.9,24.9,32.4,23.9,8.5,98,68,14,30.13,29.82,6,1,8,0.00
2013-11-20,57.9,38.5,29.4,23.8,20.1,12.9,74,54,19,30.26,30.04,3,2,4,0.00
2013-11-21,53.6,53.2,52.7,52.7,51.6,50.4,97,94,92,30.21,30.19,4,2,5,0.00
2013-11-22,56.1,54.8,52.8,55.8,54.2,52.3,99,98,97,30.17,30.02,2,0,6,0.22
2013-11-23,54.3,42.9,26.9,52.8,33.0,4.5,99,73,18,30.23,29.97,8,1,9,0.00
2013-11-24,51.2,27.9,18.3,14.4,4.4,-10.0,73,41,15,30.45,30.11,8,1,10,0.00
2013-11-25,49.8,33.8,20.8,39.6,15.6,0.0,99,53,15,30.44,30.09,11,1,15,0.07
2013-11-26,44.7,42.9,39.5,43.9,42.5,39.3,99,98,97,30.09,29.53,7,1,15,2.44
2013-11-27,40.8,26.5,14.1,40.5,20.0,6.6,99,77,56,30.22,29.54,4,0,8,0.13
2013-11-28,58.2,22.5,9.8,34.7,9.5,2.3,83,65,15,30.43,30.06,6,0,8,0.02
2013-11-29,62.7,29.7,17.7,41.8,19.8,11.4,92,72,14,30.55,30.16,4,0,5,0.00
2013-11-30,59.1,32.5,20.4,38.3,19.7,9.0,94,68,15,30.56,30.14,8,1,11,0.00
2013-12-1,54.6,40.5,28.2,39.0,29.1,5.6,92,68,15,30.29,29.90,9,1,13,0.00
2013-12-2,49.8,37.1,29.1,43.8,33.8,24.7,98,88,73,29.99,29.69,4,0,5,0.05
2013-12-3,56.1,48.3,44.2,48.8,45.8,43.7,99,91,71,29.80,29.68,5,1,15,0.12
2013-12-4,62.7,54.5,50.0,52.5,50.4,47.3,99,87,61,29.92,29.75,9,2,12,0.09
2013-12-5,66.7,59.4,54.5,60.4,56.5,52.3,99,91,72,29.93,29.80,11,2,20,0.81
2013-12-6,64.5,61.8,60.6,59.9,58.3,55.6,95,89,74,29.86,29.79,15,3,33,0.24